Regional Weather Roundup
Issued by NWS

Home | Current Version | Previous Version | Text Only | Print | Product List | Glossary On
Versions: 1 2 3 4 5 6 7 8 9 10 11 12 13 14 15 16 17 18 19 20 21 22 23 24 25 26 27
000
ASUS45 KBOU 181606
RWRCO

WEATHER ROUNDUP FOR COLORADO
NATIONAL WEATHER SERVICE DENVER/BOULDER CO
1000 AM MDT FRI APR 18 2014

NOTE: "FAIR" INDICATES FEW OR NO CLOUDS BELOW 12000 FEET WITH NO
SIGNIFICANT WEATHER AND/OR OBSTRUCTIONS TO VISIBILITY.

COZ001>005-013-030-031-181700-
...NORTHWEST COLORADO...

CITY           SKY/WX    TMP DP  RH WIND       PRES   REMARKS
CRAIG          CLOUDY    53  31  42 E13       30.03F
HAYDEN         CLOUDY    52  27  37 E13       30.08F
MEEKER         MOSUNNY   64  27  24 S21G26    30.05F
MOUNT WERNER   CLOUDY    45  14  29 S14G22    30.26R
STEAMBOAT SPGS CLOUDY    48  25  40 CALM      30.08F
WALDEN         CLOUDY    50  23  34 S12       30.13S
$$

COZ006>008-011-181700-
...WEST CENTRAL VALLEYS...

CITY           SKY/WX    TMP DP  RH WIND       PRES   REMARKS
GRAND JUNCTION PTSUNNY   57  27  31 E16       30.02F
MONTROSE       PTSUNNY   60  29  30 NW3       30.10F
EAGLE          MOSUNNY   43  27  52 CALM      30.17F
RIFLE          MOSUNNY   50  28  42 N3        30.08F
DELTA          PTSUNNY   57  29  34 E6        30.08F
NUCLA            N/A     55  28  35 CALM      30.13F
$$

COZ017>023-064>068-181700-
...SOUTHWEST COLORADO...

CITY           SKY/WX    TMP DP  RH WIND       PRES   REMARKS
DURANGO        MOSUNNY   58  23  26 VRB3      30.18F
CORTEZ         SUNNY     64  25  22 CALM      30.11F
PAGOSA SPRINGS MOSUNNY   54  20  25 CALM      30.23F
TELLURIDE      PTSUNNY   54  21  28 S3        30.24S
WOLF CREEK PAS SUNNY     36  19  51 SW14G21   30.38R
$$

COZ009-010-012-014-032>034-037-058>063-181700-
...CENTRAL COLORADO...

CITY           SKY/WX    TMP DP  RH WIND       PRES   REMARKS
ASPEN          PTSUNNY   57  27  31 NW6       30.14F
BUENA VISTA    PTSUNNY   49  22  34 CALM      30.19S
COPPER MTN     PTSUNNY   41  19  42 SW9G16    30.34S
BERTHOUD PASS  FAIR      34  27  75 W15       30.36R WCI  24
COTTONWOOD PAS PTSUNNY   50  23  34 SE6       30.25S
GUNNISON       MOSUNNY   43  25  49 CALM      30.26F
KREMMLING      PTSUNNY   45  23  42 CALM      30.17F
LEADVILLE      PTSUNNY   43  19  38 CALM      30.24F
MONARCH PASS   PTSUNNY   36  19  51 SW21G28   30.45S
SALIDA         PTSUNNY   54  24  31 N3        30.24F
SUNLIGHT       PTSUNNY   45  27  49 SW3       30.30R
WILKERSON PASS MOSUNNY   43  18  36 SW3       30.33R
$$

COZ069>075-181700-
...SAN LUIS VALLEY/SANGRE DE CRISTO MOUNTAINS...

CITY           SKY/WX    TMP DP  RH WIND       PRES   REMARKS
ALAMOSA        SUNNY     48  29  47 W6        30.22F
LA VETA PASS   SUNNY     45  23  42 SW8       30.29R
SAGUACHE       MOSUNNY   50  25  37 E5        30.24S
$$

COZ035-036-038>040-181700-
...NORTHERN COLORADO FRONT RANGE...

CITY           SKY/WX    TMP DP  RH WIND       PRES   REMARKS
DENVER INTL AP PTSUNNY   69  23  17 SE7       29.99S
DMNS CITY PARK   N/A     68  27  21 SE7       29.98S
AURORA         MOSUNNY   68  25  19 SW7       30.01F
FRONT RANGE AP PTSUNNY   68  27  21 S7        30.01S
ERIE MUNI ARPT MOSUNNY   58  35  41 CALM      29.99S
BOULDER MUN AP MOSUNNY   59  34  38 CALM      29.98F
CENTENNIAL     PTSUNNY   67  26  21 VRB7      30.01F
BROOMFIELD     PTSUNNY   63  28  27 VRB5      30.00F
FORT COLLINS   MOSUNNY   57  36  44 CALM      30.00F
LONGMONT       MOSUNNY   65  34  32 CALM      30.00S
$$

COZ041-046-047-076>085-087-088-181700-
...PIKES PEAK/PALMER DIVIDE AND SOUTHERN FOOTHILLS...

CITY           SKY/WX    TMP DP  RH WIND       PRES   REMARKS
COLO. SPRINGS  MOSUNNY   59  33  37 E3        30.07S
A. F. ACADEMY  SUNNY     59  28  30 S8        30.07F
ELLICOTT       NOT AVBL
FALCON         SUNNY     63  24  22 S8        30.10S
FORT CARSON    SUNNY     54  38  55 N3        30.05F
LIMON          SUNNY     56  38  50 VRB6      30.04F
MONUMENT HILL  SUNNY     63  23  22 S8        30.07F
TRINIDAD       SUNNY     61  31  32 W9        30.09S
$$

COZ042>045-048>051-090-091-181700-
...NORTHEAST COLORADO...

CITY           SKY/WX    TMP DP  RH WIND       PRES   REMARKS
GREELEY ARPT   MOSUNNY   54  36  50 SW3       30.00S
AKRON          MOSUNNY   65  33  30 SW8       29.99S
BURLINGTON     MOSUNNY   57  37  47 S16       30.04S
WRAY           SUNNY     60  39  46 S9        30.01S
STERLING       MOSUNNY   61  43  51 SW7       29.96F
HOLYOKE        SUNNY     61  39  44 S14       29.98F
FORT MORGAN    MOSUNNY   59  35  40 SW6       29.99F
$$

COZ086-089-092>099-181700-
...SOUTHEAST COLORADO...

CITY           SKY/WX    TMP DP  RH WIND       PRES   REMARKS
PUEBLO         SUNNY     51  37  58 VRB3      30.04F
LA JUNTA       SUNNY     53  37  54 W6        30.05F
LAMAR          SUNNY     56  38  50 CALM      30.03F
SPRINGFIELD      N/A     58  37  45 S17       30.06S
$$



USA.gov is the U.S. government's official web portal to all federal, state and local government web resources and services.